CRYOSAT 2

Last updated on Fri Sep 11 2026 00:03:31 GMT+0000 (Coordinated Universal Time)

1 36508U 10013A 26253.61140096 .00000056 00000+0 13241-4 0 9997 2 36508 92.0287 298.0486 0002431 84.6679 275.4805 14.51904047870471
UTC large
Height (km)
Speed (km/s)
/
Latitude / Longitude
Inclination (degrees)
Orbital Period (minutes)
Azimuth
Elevation
Range (km)
Doppler Factor

Next 0 passes for location: London (51.5072 / 0.1276)

No passes found over London.
CRYOSAT 2